World > North America > United States > Texas > Hereford   City of Hereford, TX

Hereford, TX Hourly Weather Updates

Feedback E-mail the Weather

Quick Clicks

Hereford, TX Weather Maps

°F °C°F °C
Hereford Weather Map
UTC Time: 5/24/2024, 11:17
Your Time:

Hereford, TX Regional Weather

Expires:202405241200;;777270
ASUS44 KSJT 241110
RWRSJT
WEST CENTRAL TEXAS REGIONAL WEATHER ROUNDUP
NATIONAL WEATHER SERVICE SAN ANGELO TX
600 AM CDT FRI MAY 24 2024

NOTE: "FAIR" INDICATES FEW OR NO CLOUDS BELOW 12,000 FEET WITH NO
SIGNIFICANT WEATHER AND/OR OBSTRUCTIONS TO VISIBILITY.


TXZ001-004-007-008-010-012-014-016-OKZ002-241200-
TEXAS PANHANDLE/OKLAHOMA PANHANDLE
  
CITY           SKY/WX    TMP DP  RH WIND       PRES   REMARKS
AMARILLO       CLEAR     58  30  34 N25G35    29.83R TC  14           
BORGER         CLEAR     59  31  34 NE13      29.85R TC  15           
CANADIAN       CLEAR     59  35  40 N9G18     29.80R TC  15           
DALHART        CLEAR     50  31  48 N12       29.90R TC  10           
DUMAS          CLEAR     50  31  49 N12       29.88R TC  10           
GUYMON         NOT AVBL                                               
HEREFORD       CLEAR     56  34  42 NE13      29.88R TC  13           
PAMPA          CLEAR     58  34  39 N21G26    29.82R TC  15           
PERRYTON       CLEAR    N/A N/A N/A N10       29.82S                  
$$


SKY/WX - Weather  TMP - Temperature  DP - Dew Point  RH - Humidity
WIND - Wind Direction/Speed PRES - Barometric Pressure VSB - Visibility
WCI - Wind Chill Index E13G22 Wind - East Wind 13 mph/Gusts of 22 mph

Trending Headlines

Trending Entertainment Headlines

Hereford Radar Loop

Use the map search tool if you want to place a location marker on the radar map...

Hereford Quick Facts

National Two Day Weather Forecast


E-mail the Hereford Weather Forecast

Voice your opinion or tell us about page issues...